[[{"header":{"parameterUnit":"m.s-1","parameterCategory":2,"la1":30.2991,"la2":30.254,"lo1":-89.0895,"lo2":-89.0444,"dy":0.0017,"dx":0.0017,"nx":28,"ny":28,"refTime":"2024-07-28T09:00:00:Z","depth":"0","parameterNumber":2,"parameterNumberName":"U-component_of_CURRENTS"},"data":[0,0,0,0,0,0,0,0,0,0,0,0,0,0,0,0,0,0,0,0,0,0,0,0,0,0,0,0,0,0,0,0,0,0,0,0,0,0,0,0,0,0,0,0,0,0,0,0,0,0,0,0,0,0,0,0,0,0,0.3161,0.3162,0,0.3159,0.3158,0.3157,0.3125,0.3125,0.3125,0.3124,0.3078,0.3077,0.3076,0,0,0,0,0,0,0,0,0,0,0,0,0,0.3083,0.3084,0.3161,0.3162,0.3162,0.3159,0.3158,0.3157,0.3125,0.3125,0.3125,0.3124,0.3079,0.3077,0.3076,0,0,0,0,0,0,0,0,0,0,0,0,0,0.3096,0.3084,0.3161,0.3151,0.315,0.3159,0.3158,0.3157,0.3125,0.3125,0.3125,0.3124,0.3079,0.3078,0.3076,0.3073,0,0,0.3071,0.3071,0,0,0,0,0,0,0,0,0.3095,0.3098,0.3152,0.3152,0.3151,0.3148,0.3114,0.3129,0.3125,0.3128,0.3124,0.3124,0.3102,0.3099,0.309,0.3071,0.3069,0.3071,0.307,0.307,0.3069,0,0,0,0,0,0,0,0.3094,0.3098,0.3153,0.3153,0.3152,0.3128,0.3129,0.3116,0.3111,0.3127,0.3127,0.3137,0.3101,0.3092,0.3089,0.3068,0.3071,0.307,0.3069,0.3068,0.3045,0.3046,0,0,0,0,0,0,0.3112,0.3097,0.3154,0.3154,0.3129,0.313,0.3131,0.3144,0.3112,0.3109,0.3137,0.3136,0.3094,0.309,0.3087,0.3081,0.307,0.3068,0.3067,0.3045,0.3045,0.3046,0,0,0,0,0,0,0.311,0.3117,0.3154,0.313,0.3134,0.3133,0.3146,0.3144,0.3139,0.3121,0.3116,0.3136,0.3094,0.3089,0.3077,0.3079,0.3067,0.3066,0.3045,0.3045,0.3045,0.307,0,0,0,0,0,0,0.3108,0.3116,0.3126,0.3132,0.3137,0.3158,0.3147,0.3144,0.3149,0.3146,0.3119,0.3114,0.3093,0.308,0.3076,0.3077,0.3065,0.3044,0.3045,0.3045,0.3069,0.3071,0.3073,0,0,0,0,0,0.3105,0.3122,0.3127,0.3134,0.3152,0.3159,0.3158,0.3151,0.3149,0.3144,0.313,0.3115,0.3081,0.3079,0.3074,0.3075,0.3044,0.3045,0.3045,0.3068,0.3071,0.3073,0,0,0,0,0,0,0.308,0.3122,0.3126,0.3152,0.3156,0.3156,0.3158,0.3157,0.3141,0.3139,0.3118,0.3111,0.3102,0.3088,0.3087,0.3071,0.306,0.306,0.3079,0.3082,0.3084,0.3082,0.3063,0,0,0,0,0,0.3086,0.3118,0.3135,0.3154,0.316,0.316,0.3163,0.3159,0.3153,0.3146,0.3128,0.3112,0.3101,0.3092,0.3077,0.3068,0.3106,0.3066,0.3069,0.3071,0.3067,0.3134,0.3143,0.3048,0.3048,0.3048,0,0,0.3079,0.311,0.3124,0.3153,0.3155,0.3157,0.3158,0.3166,0.3157,0.3144,0.3124,0.312,0.3102,0.309,0.3085,0.3078,0.3124,0.3072,0.3073,0.3068,0.3136,0.3146,0.3154,0.3048,0.3048,0.3048,0,0,0.3084,0.3111,0.3134,0.3143,0.3164,0.3161,0.3167,0.3168,0.3157,0.3147,0.3138,0.3137,0.3112,0.3102,0.3094,0.3102,0.3137,0.31,0.3106,0.3172,0.3181,0.3189,0.3283,0.3299,0.3098,0.3098,0.3098,0,0.3069,0.3104,0.3135,0.3153,0.3154,0.3164,0.3163,0.3157,0.315,0.3144,0.3141,0.313,0.3115,0.3111,0.3111,0.3106,0.3165,0.3097,0.3177,0.3185,0.3193,0.3287,0.3305,0.3099,0.3099,0.3099,0.3099,0,0.3085,0.3107,0.3119,0.3146,0.3149,0.3152,0.3153,0.3149,0.3144,0.3141,0.314,0.3132,0.3128,0.3126,0.3117,0.3158,0.3192,0.3178,0.3174,0.3205,0.3302,0.332,0.3101,0.3101,0.31,0.31,0,0,0.3047,0.3117,0.3116,0.3121,0.3143,0.3139,0.3138,0.3132,0.3132,0.3131,0.3139,0.3124,0.3139,0.3132,0.3134,0.3182,0.3296,0.3205,0.3208,0.3306,0.3484,0.351,0.3532,0.3309,0.3311,0.3313,0.3542,0,0.3036,0.3074,0.3104,0.3101,0.3107,0.3118,0.3114,0.3114,0.3117,0.3129,0.314,0.3149,0.3136,0.3151,0.3196,0.3265,0.3339,0.3238,0.3431,0.3437,0.3462,0.3551,0.3486,0.3684,0.356,0.3563,0.3565,0,0.3022,0.3053,0.3064,0.3084,0.3084,0.3081,0.3076,0.3077,0.3106,0.3114,0.3139,0.3163,0.3219,0.3213,0.3363,0.3307,0.34,0.346,0.347,0.3492,0.3495,0.3625,0.3722,0.3604,0.3593,0.359,0.3588,0,0.2972,0.3008,0.3015,0.3022,0.3052,0.3046,0.3053,0.3072,0.3072,0.3122,0.3144,0.321,0.3256,0.3368,0.348,0.3445,0.3671,0.3637,0.3756,0.3761,0.3739,0.3737,0.3744,0.3771,0.377,0.3769,0.3769,0,0.2941,0.2937,0.2995,0.2996,0.2986,0.3017,0.3008,0.3027,0.3067,0.3083,0.314,0.3185,0.33,0.3427,0.3529,0.3711,0.3721,0.3788,0.3826,0.3749,0.3745,0.3665,0.3575,0.3778,0.3776,0.3774,0.3773,0,0.2874,0.2922,0.2927,0.2963,0.2966,0.2958,0.2978,0.2978,0.3028,0.3062,0.3087,0.3199,0.3371,0.3504,0.371,0.3779,0.3852,0.4007,0.3923,0.3945,0.3918,0.3832,0.3744,0.3649,0.4185,0.4187,0.4189,0,0.2838,0.2844,0.2887,0.2885,0.2896,0.2897,0.2896,0.2947,0.2961,0.3069,0.3093,0.3267,0.3383,0.37,0.3877,0.4105,0.3932,0.4161,0.4061,0.3934,0.3866,0.3651,0.356,0.4067,0.4068,0.4068,0.4069,0,0.2759,0.2788,0.28,0.2812,0.2813,0.2809,0.2828,0.2841,0.2914,0.2976,0.309,0.3205,0.3508,0.3712,0.4003,0.4129,0.3948,0.4179,0.4062,0.3792,0.3543,0.3464,0.3914,0.4073,0.4072,0.4072,0.4072,0.4072,0.2687,0.2688,0.2722,0.2717,0.2723,0.2722,0.2707,0.2758,0.2809,0.2893,0.3048,0.3208,0.3501,0.3906,0.3999,0.4111,0.4012,0.4067,0.3991,0.3798,0.3625,0.4099,0.4275,0.4275,0.4276,0.4276,0.4277,0,0.2594,0.2617,0.2616,0.2623,0.2598,0.2633,0.265,0.2643,0.2697,0.2839,0.2953,0.3249,0.3496,0.3715,0.3966,0.3928,0.3753,0.3842,0.3505,0.3441,0.3914,0.3826,0.3891,0.3891,0.3892,0.3892,0.3892,0.3892,0.2551,0.2537,0.2552,0.2499,0.2495,0.2456,0.2459,0.2485,0.2573,0.2705,0.2855,0.3008,0.3315,0.3576,0.3643,0.3625,0.3346,0.3269,0.3187,0.3508,0.352,0.3532,0.3428,0.3409,0.3408,0.262,0.2613,0.2609]},{"header":{"parameterUnit":"m.s-1","parameterCategory":2,"la1":30.2991,"la2":30.254,"lo1":-89.0895,"lo2":-89.0444,"dy":0.0017,"dx":0.0017,"nx":28,"ny":28,"refTime":"2024-07-28T09:00:00:Z","depth":"0","parameterNumber":3,"parameterNumberName":"V-component_of_CURRENTS"},"data":[0,0,0,0,0,0,0,0,0,0,0,0,0,0,0,0,0,0,0,0,0,0,0,0,0,0,0,0,0,0,0,0,0,0,0,0,0,0,0,0,0,0,0,0,0,0,0,0,0,0,0,0,0,0,0,0,0,0,-0.0342,-0.0343,0,-0.0433,-0.0434,-0.0435,-0.0455,-0.0455,-0.0454,-0.0453,-0.0582,-0.0586,-0.059,0,0,0,0,0,0,0,0,0,0,0,0,0,-0.026,-0.0261,-0.0342,-0.0343,-0.0344,-0.0433,-0.0434,-0.0435,-0.0455,-0.0455,-0.0454,-0.0453,-0.0581,-0.0586,-0.0591,0,0,0,0,0,0,0,0,0,0,0,0,0,-0.0317,-0.0261,-0.0341,-0.0365,-0.0368,-0.0432,-0.0434,-0.0435,-0.0456,-0.0455,-0.0454,-0.0453,-0.0579,-0.0585,-0.0591,-0.0648,0,0,-0.061,-0.0612,0,0,0,0,0,0,0,0,-0.0314,-0.032,-0.036,-0.0363,-0.0367,-0.0432,-0.0452,-0.0508,-0.0456,-0.0422,-0.0453,-0.0452,-0.0536,-0.0546,-0.0565,-0.0654,-0.066,-0.061,-0.0614,-0.0617,-0.0618,0,0,0,0,0,0,0,-0.031,-0.0317,-0.0378,-0.0361,-0.0365,-0.0396,-0.0402,-0.0463,-0.0484,-0.0425,-0.0427,-0.0437,-0.0538,-0.0559,-0.0568,-0.0662,-0.061,-0.0615,-0.0619,-0.0622,-0.0802,-0.0803,0,0,0,0,0,0,-0.0296,-0.0313,-0.0375,-0.0381,-0.0337,-0.0398,-0.0405,-0.0412,-0.0483,-0.0493,-0.0438,-0.0438,-0.0549,-0.0561,-0.0572,-0.0612,-0.0616,-0.0622,-0.0626,-0.08,-0.0802,-0.0803,0,0,0,0,0,0,-0.0294,-0.03,-0.0371,-0.0349,-0.036,-0.04,-0.0408,-0.0414,-0.0437,-0.0492,-0.0502,-0.0454,-0.0548,-0.0564,-0.0632,-0.0619,-0.0625,-0.063,-0.0799,-0.0801,-0.0802,-0.0713,0,0,0,0,0,0,-0.0291,-0.0299,-0.0303,-0.0348,-0.0361,-0.0412,-0.0409,-0.0417,-0.0445,-0.0445,-0.051,-0.052,-0.0549,-0.0623,-0.0638,-0.0627,-0.0635,-0.0798,-0.08,-0.0802,-0.0715,-0.0712,-0.0709,0,0,0,0,0,-0.0288,-0.0294,-0.0302,-0.031,-0.0363,-0.0413,-0.0423,-0.0448,-0.0446,-0.0464,-0.0506,-0.0518,-0.0647,-0.063,-0.0647,-0.0637,-0.0797,-0.0799,-0.0802,-0.0716,-0.0712,-0.0709,0,0,0,0,0,0,-0.026,-0.0298,-0.0308,-0.0325,-0.0368,-0.0417,-0.0431,-0.0453,-0.05,-0.0498,-0.0544,-0.0559,-0.061,-0.0653,-0.0632,-0.07,-0.072,-0.0726,-0.0649,-0.0646,-0.0643,-0.0592,-0.064,0,0,0,0,0,-0.0256,-0.0267,-0.0316,-0.0329,-0.0347,-0.0391,-0.0414,-0.0436,-0.0482,-0.05,-0.0544,-0.0594,-0.0637,-0.0663,-0.0717,-0.0764,-0.0752,-0.077,-0.0767,-0.0764,-0.0738,-0.0714,-0.0704,-0.0812,-0.0811,-0.0811,0,0,-0.0246,-0.027,-0.0274,-0.0324,-0.0352,-0.038,-0.0402,-0.0438,-0.0454,-0.051,-0.0547,-0.0594,-0.0652,-0.0693,-0.0718,-0.0723,-0.073,-0.0767,-0.0763,-0.0738,-0.0715,-0.0703,-0.0693,-0.0813,-0.0813,-0.0813,0,0,-0.023,-0.0254,-0.0258,-0.0296,-0.0345,-0.0375,-0.0385,-0.0442,-0.0457,-0.0513,-0.0541,-0.0573,-0.0666,-0.0678,-0.07,-0.0722,-0.072,-0.0754,-0.069,-0.0667,-0.0656,-0.0646,-0.061,-0.0598,-0.0746,-0.0746,-0.0746,0,-0.0213,-0.0229,-0.027,-0.0292,-0.0312,-0.0368,-0.0381,-0.0415,-0.0486,-0.0486,-0.0516,-0.0592,-0.0644,-0.0651,-0.0656,-0.0706,-0.0695,-0.0689,-0.0656,-0.0646,-0.0637,-0.0603,-0.059,-0.0742,-0.0742,-0.0743,-0.0743,0,-0.0208,-0.0225,-0.0233,-0.0269,-0.03,-0.0326,-0.0374,-0.0401,-0.0428,-0.0449,-0.0473,-0.0535,-0.0562,-0.0593,-0.0633,-0.0603,-0.0614,-0.0652,-0.0645,-0.062,-0.0587,-0.0575,-0.0736,-0.0737,-0.0739,-0.074,0,0,-0.0151,-0.0213,-0.0214,-0.0223,-0.0289,-0.0309,-0.0332,-0.0355,-0.0334,-0.04,-0.0365,-0.0441,-0.0449,-0.0476,-0.052,-0.0507,-0.0444,-0.0549,-0.055,-0.0479,-0.0377,-0.0377,-0.0365,-0.0473,-0.0471,-0.0469,-0.0373,0,-0.0129,-0.0153,-0.0191,-0.0204,-0.0219,-0.0268,-0.0271,-0.0297,-0.0316,-0.0303,-0.0336,-0.0336,-0.0412,-0.0408,-0.0407,-0.0439,-0.0411,-0.0465,-0.0442,-0.0441,-0.0416,-0.0351,-0.0345,-0.0259,-0.0362,-0.036,-0.0359,0,-0.0106,-0.0127,-0.0137,-0.0156,-0.0161,-0.0171,-0.0164,-0.0176,-0.0173,-0.0179,-0.0176,-0.0205,-0.0195,-0.0264,-0.0261,-0.0293,-0.0318,-0.0343,-0.0341,-0.0357,-0.0419,-0.0308,-0.0234,-0.0424,-0.0341,-0.0342,-0.0344,0,-0.0044,-0.0079,-0.0079,-0.0097,-0.0133,-0.0122,-0.0125,-0.0127,-0.0105,-0.0081,-0.0048,-0.006,-0.0043,-0.008,-0.0145,-0.0193,-0.013,-0.0205,-0.022,-0.0221,-0.0217,-0.0221,-0.0291,-0.0176,-0.0176,-0.0176,-0.0177,0,-0.0008,-0.0006,-0.0046,-0.0052,-0.0022,-0.0057,-0.0007,-0.0012,0.0023,0.0079,0.0035,0.0085,0.0004,0.001,-0.0068,-0.0088,-0.0064,-0.0172,-0.0184,-0.019,-0.0193,-0.0362,-0.0474,-0.0173,-0.0174,-0.0174,-0.0175,0,0.0049,0.0017,0.0019,-0.0002,0.0001,0.0026,0.0056,0.01,0.0124,0.0202,0.0221,0.0225,0.0236,0.0162,0.0124,0.0031,-0.0088,-0.0023,-0.0016,-0.003,-0.0249,-0.0355,-0.0379,-0.0449,-0.0016,-0.0015,-0.0014,0,0.0073,0.0075,0.0061,0.0074,0.0065,0.0097,0.0128,0.0148,0.02,0.0287,0.0341,0.0381,0.0414,0.0369,0.0235,0.015,-0.0029,0.0071,-0.0029,-0.0224,-0.0352,-0.0424,-0.0488,0.0013,0.0014,0.0015,0.0015,0,0.0119,0.0114,0.0113,0.0134,0.0162,0.0201,0.0251,0.0307,0.0356,0.0432,0.0537,0.0581,0.0543,0.0481,0.0353,0.0247,-0.0064,0.008,-0.012,-0.0317,-0.0397,-0.0484,-0.009,0.0021,0.0021,0.002,0.002,0.002,0.016,0.0175,0.0175,0.02,0.0238,0.0307,0.0363,0.0433,0.0537,0.0681,0.0697,0.0827,0.0688,0.0523,0.0327,-0.0019,-0.0026,-0.0147,-0.0248,-0.0293,-0.0401,0.0015,0.0096,0.0095,0.0095,0.0095,0.0095,0,0.0201,0.0214,0.0241,0.0278,0.0338,0.0344,0.0445,0.0523,0.0657,0.0826,0.0934,0.1007,0.0773,0.0498,0.0066,-0.027,-0.0422,-0.0472,-0.0601,-0.0644,-0.0264,-0.0309,-0.0315,-0.0314,-0.0314,-0.0314,-0.0314,-0.0314,0.0225,0.0256,0.0264,0.0355,0.0394,0.0494,0.056,0.0684,0.0826,0.1068,0.1232,0.1335,0.1167,0.0231,-0.0466,-0.0659,-0.0923,-0.0955,-0.1091,-0.0895,-0.0875,-0.0855,-0.0925,-0.106,-0.1061,-0.1431,-0.1435,-0.1438]}],[{"header":{"parameterUnit":"m.s-1","parameterCategory":2,"la1":30.2991,"la2":30.254,"lo1":-89.0895,"lo2":-89.0444,"dy":0.0017,"dx":0.0017,"nx":28,"ny":28,"refTime":"2024-07-28T09:00:00:Z","depth":"2","parameterNumber":2,"parameterNumberName":"U-component_of_CURRENTS"},"data":[0,0,0,0,0,0,0,0,0,0,0,0,0,0,0,0,0,0,0,0,0,0,0,0,0,0,0,0,0,0,0,0,0,0,0,0,0,0,0,0,0,0,0,0,0,0,0,0,0,0,0,0,0,0,0,0,0,0,0.0587,0.0588,0,0.0625,0.0626,0.0626,0.0699,0.07,0.0702,0.0703,0.0757,0.0757,0.0757,0,0,0,0,0,0,0,0,0,0,0,0,0,0.0595,0.0595,0.0587,0.0588,0.0588,0.0625,0.0626,0.0626,0.0698,0.07,0.0702,0.0704,0.0757,0.0757,0.0757,0,0,0,0,0,0,0,0,0,0,0,0,0,0.0607,0.0594,0.0587,0.063,0.0634,0.0625,0.0626,0.0626,0.0698,0.07,0.0703,0.0705,0.0757,0.0757,0.0757,0.0711,0,0,0.0757,0.0757,0,0,0,0,0,0,0,0,0.0607,0.0607,0.0623,0.0627,0.0632,0.0661,0.0649,0.0656,0.0698,0.0673,0.0703,0.0706,0.0725,0.0728,0.0728,0.0714,0.0716,0.0757,0.0757,0.0757,0.0757,0,0,0,0,0,0,0,0.0606,0.0606,0.0601,0.0623,0.0629,0.0653,0.0657,0.065,0.0685,0.0675,0.0681,0.0686,0.0728,0.0728,0.073,0.0717,0.0757,0.0757,0.0757,0.0757,0.0848,0.0851,0,0,0,0,0,0,0.0599,0.0604,0.06,0.0602,0.0626,0.0651,0.0656,0.0648,0.0685,0.0693,0.0684,0.0689,0.0727,0.073,0.0732,0.0849,0.0757,0.0757,0.0757,0.0846,0.0849,0.0852,0,0,0,0,0,0,0.0599,0.0598,0.0599,0.0606,0.0609,0.0649,0.064,0.0648,0.068,0.0692,0.0701,0.0713,0.0729,0.0732,0.0771,0.0846,0.0757,0.0757,0.0843,0.0847,0.085,0.0975,0,0,0,0,0,0,0.0599,0.0597,0.0597,0.0605,0.0608,0.062,0.0638,0.0647,0.0679,0.0687,0.0718,0.0724,0.0731,0.0771,0.0771,0.0844,0.0757,0.084,0.0845,0.0849,0.0968,0.0982,0.0995,0,0,0,0,0,0.0599,0.0589,0.0597,0.0597,0.0603,0.0621,0.0625,0.0661,0.0678,0.0697,0.0729,0.0725,0.0801,0.0772,0.0771,0.0847,0.0838,0.0843,0.0849,0.0962,0.098,0.0995,0,0,0,0,0,0,0.0591,0.0596,0.0605,0.0597,0.062,0.0635,0.0653,0.0669,0.0705,0.0723,0.0734,0.0742,0.0812,0.0798,0.0765,0.0887,0.0826,0.0832,0.0912,0.0929,0.0942,0.0968,0.0757,0,0,0,0,0,0.0586,0.0588,0.0598,0.0598,0.0609,0.0632,0.0646,0.0671,0.0698,0.0717,0.0742,0.0777,0.0824,0.0851,0.0873,0.0917,0.0936,0.0972,0.0985,0.0997,0.1019,0.1119,0.1145,0.0869,0.0869,0.0869,0,0,0.0583,0.0588,0.0589,0.0599,0.0618,0.0656,0.0648,0.0679,0.0731,0.0713,0.0792,0.0814,0.0844,0.0918,0.0949,0.0923,0.1083,0.1004,0.1014,0.103,0.1128,0.1155,0.1179,0.0873,0.0872,0.0872,0,0,0.0596,0.0585,0.0603,0.0625,0.0659,0.0678,0.0693,0.0724,0.0763,0.0819,0.0846,0.0915,0.0953,0.1017,0.1049,0.114,0.1146,0.115,0.1249,0.1347,0.1371,0.1393,0.1443,0.1468,0.1164,0.1165,0.1165,0,0.0602,0.0617,0.0614,0.0649,0.0679,0.0696,0.0742,0.0779,0.0827,0.0877,0.0865,0.0997,0.1014,0.1147,0.1196,0.1177,0.1214,0.1187,0.1368,0.139,0.1409,0.1455,0.1481,0.1171,0.1171,0.117,0.1169,0,0.0638,0.0659,0.0673,0.0728,0.076,0.0794,0.0845,0.0895,0.0938,0.0989,0.1112,0.1144,0.1233,0.126,0.1261,0.1424,0.1397,0.1369,0.133,0.1445,0.1485,0.151,0.1181,0.1179,0.1177,0.1175,0,0,0.0633,0.0688,0.0698,0.0739,0.0803,0.0833,0.0928,0.1021,0.1106,0.1172,0.1291,0.1394,0.1421,0.1459,0.1477,0.1569,0.1735,0.1543,0.1545,0.1598,0.1937,0.1776,0.1786,0.1751,0.1756,0.176,0.1905,0,0.0672,0.0737,0.0765,0.0852,0.0891,0.0946,0.1033,0.1127,0.1206,0.132,0.1406,0.1515,0.1495,0.1552,0.1649,0.1713,0.1809,0.1697,0.1812,0.1815,0.1664,0.1813,0.1682,0.1789,0.1929,0.1933,0.1936,0,0.0707,0.0745,0.0823,0.0916,0.0942,0.101,0.1152,0.1233,0.1396,0.1462,0.1594,0.1648,0.181,0.1757,0.1956,0.189,0.1938,0.1973,0.1979,0.1805,0.1701,0.1698,0.1828,0.1977,0.1974,0.1971,0.1968,0,0.0701,0.079,0.0852,0.0883,0.0992,0.1063,0.114,0.1291,0.1378,0.1567,0.1652,0.1822,0.1913,0.2025,0.2091,0.2054,0.2279,0.2224,0.2124,0.2111,0.2009,0.1976,0.2382,0.2382,0.2382,0.2381,0.2381,0,0.0719,0.0771,0.0858,0.0892,0.0995,0.1076,0.1212,0.1314,0.1473,0.1597,0.1728,0.1844,0.1993,0.2116,0.2165,0.2218,0.2343,0.218,0.2162,0.2041,0.2012,0.217,0.2144,0.2387,0.2386,0.2385,0.2384,0,0.07,0.0752,0.0829,0.0946,0.0991,0.1071,0.1231,0.1325,0.148,0.1643,0.1711,0.1909,0.2064,0.2167,0.2341,0.2289,0.2364,0.2346,0.2162,0.2118,0.2112,0.209,0.227,0.2266,0.2262,0.2259,0.2257,0,0.0695,0.0728,0.0849,0.0898,0.0957,0.1078,0.116,0.1319,0.1417,0.167,0.1744,0.1946,0.2038,0.2201,0.222,0.2275,0.2334,0.2128,0.202,0.2148,0.2114,0.2097,0.208,0.1946,0.1941,0.1938,0.1935,0,0.0683,0.0729,0.0787,0.0881,0.097,0.1065,0.1196,0.1264,0.1457,0.1587,0.177,0.1862,0.2006,0.2001,0.2028,0.2034,0.2101,0.2041,0.2316,0.1948,0.1842,0.1806,0.1803,0.19,0.1904,0.1906,0.1908,0.1909,0.0678,0.0713,0.0789,0.0879,0.096,0.1047,0.1114,0.1232,0.1363,0.1525,0.1654,0.1727,0.1788,0.1744,0.1757,0.1778,0.1876,0.1801,0.1816,0.1834,0.1724,0.1613,0.1607,0.1609,0.161,0.1612,0.1613,0,0.0681,0.0724,0.0785,0.0885,0.0939,0.1014,0.113,0.1168,0.1274,0.1387,0.1487,0.1387,0.1392,0.1491,0.1466,0.1445,0.1469,0.1405,0.1449,0.1482,0.1512,0.1388,0.1182,0.1181,0.118,0.1179,0,0,0.069,0.0739,0.077,0.0848,0.0914,0.0986,0.1042,0.1078,0.1138,0.1147,0.1169,0.1254,0.1367,0.1217,0.1239,0.1217,0.1334,0.1176,0.1521,0.1602,0.163,0.1739,0.1583,0,0,0,0,0]},{"header":{"parameterUnit":"m.s-1","parameterCategory":2,"la1":30.2991,"la2":30.254,"lo1":-89.0895,"lo2":-89.0444,"dy":0.0017,"dx":0.0017,"nx":28,"ny":28,"refTime":"2024-07-28T09:00:00:Z","depth":"2","parameterNumber":3,"parameterNumberName":"V-component_of_CURRENTS"},"data":[0,0,0,0,0,0,0,0,0,0,0,0,0,0,0,0,0,0,0,0,0,0,0,0,0,0,0,0,0,0,0,0,0,0,0,0,0,0,0,0,0,0,0,0,0,0,0,0,0,0,0,0,0,0,0,0,0,0,0.0155,0.0155,0,0.0094,0.0093,0.0092,0.0033,0.0032,0.0031,0.0031,-0.0028,-0.0029,-0.003,0,0,0,0,0,0,0,0,0,0,0,0,0,0.022,0.0219,0.0155,0.0155,0.0154,0.0094,0.0093,0.0092,0.0033,0.0032,0.0031,0.003,-0.0028,-0.0029,-0.003,0,0,0,0,0,0,0,0,0,0,0,0,0,0.0177,0.0218,0.0155,0.0118,0.0114,0.0094,0.0093,0.0092,0.0033,0.0032,0.0031,0.003,-0.0028,-0.0029,-0.0031,-0.002,0,0,-0.0035,-0.0036,0,0,0,0,0,0,0,0,0.0179,0.0174,0.0124,0.0121,0.0116,0.0071,0.0094,0.0055,0.0033,0.0062,0.0031,0.003,0.0007,0.0002,-0.0009,-0.0023,-0.0026,-0.0035,-0.0036,-0.0037,-0.0037,0,0,0,0,0,0,0,0.0182,0.0177,0.013,0.0124,0.0119,0.0104,0.0097,0.0086,0.004,0.006,0.0056,0.0051,0.0004,-0.0008,-0.0011,-0.0027,-0.0035,-0.0036,-0.0037,-0.0038,-0.006,-0.006,0,0,0,0,0,0,0.0194,0.018,0.0132,0.0128,0.0148,0.0104,0.0096,0.0086,0.004,0.0032,0.0052,0.0049,-0.0005,-0.0009,-0.0013,-0.0018,-0.0037,-0.0038,-0.0039,-0.006,-0.006,-0.006,0,0,0,0,0,0,0.0196,0.019,0.0134,0.0154,0.0146,0.0104,0.0093,0.0085,0.007,0.0034,0.0026,0.0046,-0.0006,-0.0011,-0.0026,-0.002,-0.0039,-0.004,-0.0061,-0.006,-0.006,-0.0018,0,0,0,0,0,0,0.0198,0.0191,0.0191,0.0155,0.0145,0.013,0.0094,0.0084,0.007,0.0065,0.0026,0.002,-0.0007,-0.0024,-0.0028,-0.0022,-0.0041,-0.0061,-0.006,-0.006,-0.002,-0.0016,-0.0013,0,0,0,0,0,0.02,0.0202,0.0191,0.0186,0.0145,0.0131,0.0125,0.0091,0.0071,0.0072,0.0039,0.0021,-0.0023,-0.0025,-0.0029,-0.0024,-0.0061,-0.0061,-0.006,-0.0021,-0.0017,-0.0013,0,0,0,0,0,0,0.023,0.0196,0.0182,0.0174,0.0159,0.0121,0.0117,0.0097,0.0072,0.0064,0.0026,0.0018,0.0004,-0.0012,-0.0012,-0.0029,-0.0046,-0.0046,-0.0015,-0.0011,-0.0007,0.0016,-0.0042,0,0,0,0,0,0.0239,0.0229,0.0201,0.0196,0.0189,0.0156,0.0146,0.0125,0.0098,0.0085,0.0056,0.0027,0.0005,-0.0004,-0.0026,-0.0028,-0.0048,-0.0029,-0.0025,-0.0022,-0.0007,-0.0037,-0.0034,-0.0057,-0.0057,-0.0057,0,0,0.0249,0.023,0.0223,0.0202,0.0183,0.018,0.0147,0.0135,0.0131,0.0085,0.0068,0.0038,0.0006,-0.0006,-0.0012,-0.0018,-0.0028,-0.0022,-0.0019,-0.0005,-0.0036,-0.0033,-0.0031,-0.0057,-0.0057,-0.0057,0,0,0.0266,0.0248,0.0247,0.0239,0.022,0.0201,0.0202,0.0169,0.0153,0.0139,0.0099,0.0079,0.0046,0.0024,0.0009,0.0023,-0.0011,0.0011,0.005,0.002,0.0022,0.0024,-0.0004,-0.0006,0.0016,0.0016,0.0016,0,0.0279,0.0273,0.0248,0.025,0.0247,0.0214,0.022,0.0204,0.017,0.0168,0.0141,0.0094,0.0063,0.0053,0.005,0.0032,0.0007,0.0036,0.0025,0.0026,0.0027,-0.0002,-0.0004,0.0018,0.0018,0.0017,0.0017,0,0.0295,0.0295,0.0296,0.0285,0.0283,0.0282,0.0262,0.0256,0.0231,0.0215,0.0199,0.0152,0.0127,0.0109,0.0081,0.0073,0.0051,0.003,0.0017,0.0032,0.0,-0.0003,0.0021,0.002,0.0019,0.0019,0,0,0.03,0.0306,0.0305,0.0316,0.0301,0.0303,0.0304,0.0301,0.0316,0.0273,0.0284,0.0231,0.0206,0.0188,0.0147,0.0122,0.0095,0.0081,0.0079,0.0058,0.0028,-0.005,-0.0061,0.0065,0.0065,0.0065,0.0001,0,0.0316,0.0335,0.0331,0.0355,0.0362,0.035,0.0361,0.0359,0.0349,0.0355,0.0308,0.0301,0.0236,0.0227,0.0188,0.013,0.009,0.0114,0.0014,0.0011,-0.0057,-0.0066,-0.0048,-0.0109,-0.0002,-0.0002,-0.0003,0,0.0324,0.0338,0.0363,0.0397,0.0401,0.0413,0.0436,0.0446,0.045,0.0446,0.0427,0.0393,0.0356,0.0295,0.0193,0.0209,0.0121,0.0065,0.006,-0.0024,-0.0072,-0.0106,-0.0118,-0.0008,-0.0007,-0.0007,-0.0007,0,0.0332,0.0361,0.0384,0.0391,0.0421,0.0437,0.0454,0.0471,0.0504,0.0509,0.0537,0.0474,0.0458,0.0346,0.0222,0.0205,0.0109,0.007,-0.0086,-0.0092,-0.0101,-0.0109,-0.0016,-0.0016,-0.0015,-0.0015,-0.0015,0,0.0343,0.0363,0.0393,0.0406,0.0455,0.0464,0.0522,0.0536,0.0576,0.0641,0.0585,0.0617,0.0469,0.0396,0.0258,0.0083,0.0128,-0.0079,-0.0116,-0.0089,-0.0094,-0.0023,-0.0023,-0.0018,-0.0017,-0.0017,-0.0016,0,0.0345,0.0359,0.0396,0.0438,0.0459,0.0493,0.0575,0.0632,0.0656,0.074,0.0749,0.0725,0.0621,0.046,0.0292,0.0135,-0.0023,-0.0103,-0.0063,-0.0096,-0.0216,-0.0213,-0.0288,-0.0291,-0.0294,-0.0296,-0.0298,0,0.0347,0.0363,0.0421,0.0461,0.0483,0.0544,0.0608,0.0661,0.0737,0.0816,0.087,0.0799,0.0741,0.0457,0.0199,-0.0071,-0.0075,-0.024,-0.0286,-0.0216,-0.0245,-0.0237,-0.023,-0.0276,-0.0277,-0.0278,-0.028,0,0.0359,0.0376,0.0415,0.0501,0.0569,0.0662,0.0755,0.0831,0.0917,0.0978,0.1064,0.1016,0.0734,0.0449,0.0055,-0.011,-0.0199,-0.0281,-0.02,-0.0223,-0.0214,-0.0239,-0.0231,-0.0291,-0.029,-0.0289,-0.0289,-0.0288,0.0372,0.0411,0.0476,0.0561,0.0646,0.0785,0.0886,0.0994,0.1117,0.119,0.1132,0.1011,0.0714,0.0156,-0.0076,-0.0309,-0.0326,-0.043,-0.0421,-0.0412,-0.0412,-0.0411,-0.0524,-0.0524,-0.0525,-0.0525,-0.0525,0,0.0406,0.0465,0.0544,0.0667,0.0783,0.082,0.0998,0.1101,0.1256,0.1201,0.1171,0.0796,0.0445,0.0159,-0.0217,-0.0469,-0.0431,-0.0519,-0.0419,-0.0408,-0.0399,-0.0394,-0.0503,-0.0503,-0.0503,-0.0503,0,0,0.0432,0.0522,0.0577,0.0774,0.0864,0.1048,0.1162,0.1287,0.1291,0.1205,0.1047,0.0778,0.0436,0.0153,-0.0137,-0.0309,-0.0292,-0.0333,-0.0336,-0.0175,-0.0161,-0.0347,-0.0329,0,0,0,0,0]}],[{"header":{"parameterUnit":"m.s-1","parameterCategory":2,"la1":30.2991,"la2":30.254,"lo1":-89.0895,"lo2":-89.0444,"dy":0.0017,"dx":0.0017,"nx":28,"ny":28,"refTime":"2024-07-28T09:00:00:Z","depth":"4","parameterNumber":2,"parameterNumberName":"U-component_of_CURRENTS"},"data":[0,0,0,0,0,0,0,0,0,0,0,0,0,0,0,0,0,0,0,0,0,0,0,0,0,0,0,0,0,0,0,0,0,0,0,0,0,0,0,0,0,0,0,0,0,0,0,0,0,0,0,0,0,0,0,0,0,0,0.0399,0.0399,0,0.0421,0.0422,0.0422,0.0451,0.0452,0.0453,0.0453,0.0501,0.0502,0.0502,0,0,0,0,0,0,0,0,0,0,0,0,0,0.0377,0.0377,0.0399,0.0399,0.04,0.0421,0.0422,0.0422,0.0451,0.0452,0.0453,0.0454,0.0501,0.0501,0.0502,0,0,0,0,0,0,0,0,0,0,0,0,0,0.0389,0.0377,0.0399,0.0419,0.0421,0.0421,0.0422,0.0422,0.0451,0.0452,0.0453,0.0454,0.0501,0.0501,0.0502,0.0485,0,0,0.0505,0.0505,0,0,0,0,0,0,0,0,0.0388,0.0389,0.0416,0.0418,0.042,0.0437,0.0431,0.0445,0.0451,0.0437,0.0453,0.0455,0.0483,0.0485,0.0483,0.0488,0.049,0.0505,0.0506,0.0506,0.0506,0,0,0,0,0,0,0,0.0387,0.0389,0.0405,0.0416,0.0419,0.0426,0.0429,0.0434,0.0452,0.0438,0.0441,0.0448,0.0484,0.0482,0.0484,0.049,0.0505,0.0506,0.0506,0.0507,0.0562,0.0563,0,0,0,0,0,0,0.0389,0.0388,0.0404,0.0406,0.041,0.0426,0.0429,0.0428,0.0451,0.0456,0.0447,0.0449,0.048,0.0483,0.0486,0.0543,0.0506,0.0507,0.0507,0.0561,0.0562,0.0563,0,0,0,0,0,0,0.0388,0.039,0.0403,0.04,0.0403,0.0425,0.0425,0.0428,0.0458,0.0458,0.0463,0.0476,0.0481,0.0485,0.0511,0.0542,0.0507,0.0508,0.056,0.0561,0.0563,0.0608,0,0,0,0,0,0,0.0387,0.0389,0.04,0.04,0.0403,0.0417,0.0424,0.0428,0.0459,0.0463,0.0484,0.0488,0.0482,0.0509,0.0512,0.0543,0.0509,0.0559,0.0561,0.0562,0.0605,0.0611,0.0616,0,0,0,0,0,0.0386,0.0391,0.04,0.0403,0.0413,0.0418,0.042,0.0438,0.046,0.047,0.0487,0.0489,0.0523,0.051,0.0513,0.0545,0.0558,0.056,0.0562,0.0603,0.061,0.0615,0,0,0,0,0,0,0.0387,0.0395,0.0405,0.0413,0.0424,0.0424,0.0439,0.0455,0.0476,0.049,0.0495,0.0499,0.0533,0.0531,0.0518,0.0566,0.0543,0.0546,0.0574,0.058,0.0585,0.0588,0.0509,0,0,0,0,0,0.0392,0.0397,0.0407,0.0414,0.0424,0.0439,0.0451,0.0463,0.0476,0.0488,0.0509,0.0527,0.0537,0.0554,0.0558,0.0584,0.0571,0.0608,0.0613,0.0618,0.0622,0.0616,0.0621,0.057,0.057,0.057,0,0,0.0394,0.04,0.0404,0.0416,0.0427,0.0442,0.0449,0.047,0.049,0.0489,0.0535,0.0545,0.0546,0.0573,0.0589,0.0581,0.0627,0.0621,0.0624,0.0626,0.0619,0.0624,0.0628,0.0572,0.0571,0.0571,0,0,0.0392,0.0408,0.0414,0.0425,0.0448,0.0458,0.0474,0.0497,0.0519,0.055,0.0558,0.0585,0.0612,0.0616,0.062,0.0657,0.065,0.0673,0.0709,0.0703,0.0707,0.0711,0.0705,0.0708,0.0681,0.0681,0.0682,0,0.04,0.0404,0.0417,0.0427,0.0445,0.0472,0.049,0.0508,0.0541,0.057,0.0573,0.0625,0.0627,0.0657,0.0672,0.0669,0.0667,0.0685,0.071,0.0712,0.0715,0.0709,0.0711,0.0684,0.0684,0.0683,0.0683,0,0.0399,0.0413,0.0419,0.0443,0.0464,0.0481,0.0511,0.0546,0.0585,0.0613,0.0666,0.0665,0.07,0.0708,0.0701,0.0734,0.0728,0.0711,0.0692,0.0723,0.0714,0.0716,0.0687,0.0686,0.0686,0.0685,0,0,0.0385,0.0414,0.0417,0.0436,0.0477,0.0492,0.0536,0.0584,0.0625,0.0669,0.072,0.0742,0.0767,0.0771,0.0774,0.0774,0.0787,0.0762,0.076,0.0754,0.0785,0.0789,0.079,0.0781,0.0782,0.0782,0.0773,0,0.0385,0.0403,0.0423,0.0457,0.0476,0.0519,0.0556,0.0609,0.0656,0.0713,0.0743,0.079,0.0783,0.0808,0.0809,0.0791,0.0793,0.0792,0.0758,0.0757,0.0755,0.0792,0.0784,0.0774,0.0774,0.0775,0.0775,0,0.0378,0.0393,0.0424,0.0471,0.0487,0.0524,0.06,0.0633,0.0714,0.0753,0.0813,0.0844,0.0876,0.0853,0.0846,0.0851,0.0828,0.0806,0.0805,0.0793,0.0764,0.0736,0.0777,0.0776,0.0776,0.0776,0.0776,0,0.0356,0.0395,0.0424,0.0439,0.0497,0.0541,0.0588,0.0666,0.0703,0.0795,0.0833,0.0882,0.0903,0.0889,0.0872,0.0862,0.085,0.0821,0.0802,0.0801,0.0777,0.0774,0.0809,0.0809,0.0809,0.0809,0.0809,0,0.0341,0.036,0.0426,0.0437,0.0497,0.0545,0.0616,0.0668,0.074,0.0788,0.086,0.0888,0.0913,0.092,0.089,0.0863,0.0865,0.0818,0.0804,0.0798,0.0797,0.0778,0.0775,0.0809,0.0809,0.0809,0.0809,0,0.0304,0.034,0.0374,0.0449,0.0487,0.0535,0.0633,0.0667,0.0744,0.0802,0.0837,0.0901,0.092,0.0935,0.0911,0.0881,0.0853,0.0839,0.0848,0.0833,0.08,0.0799,0.0812,0.0812,0.0812,0.0812,0.0812,0,0.0284,0.0297,0.0379,0.0416,0.0461,0.0542,0.0588,0.0672,0.0705,0.0794,0.0808,0.0874,0.0913,0.0886,0.0897,0.0877,0.086,0.0846,0.0814,0.0818,0.0803,0.0801,0.08,0.0812,0.0813,0.0813,0.0813,0,0.0241,0.0275,0.0305,0.0381,0.0446,0.0503,0.0581,0.0605,0.0687,0.075,0.0789,0.0829,0.0855,0.0868,0.0883,0.0852,0.0859,0.0847,0.0846,0.0815,0.0819,0.0803,0.0802,0.0813,0.0813,0.0813,0.0813,0,0.0212,0.0228,0.0274,0.0345,0.0414,0.0461,0.0509,0.0563,0.061,0.0713,0.0716,0.0784,0.0839,0.0853,0.0848,0.0855,0.083,0.0794,0.0794,0.0794,0.0798,0.08,0.0786,0,0,0,0,0,0.0182,0.0195,0.0238,0.0311,0.0371,0.0417,0.0495,0.0535,0.0618,0.0632,0.0682,0.0714,0.0758,0.0784,0.0786,0.0828,0.0822,0.0827,0.0777,0.0816,0.0815,0.0824,0,0,0,0,0,0,0.0162,0.0188,0.0214,0.0267,0.0311,0.037,0.042,0.0472,0.0494,0.0581,0.0604,0.0676,0.0717,0.0746,0.077,0.078,0.0739,0.0872,0.087,0.0816,0.0816,0.0815,0.0824,0,0,0,0,0]},{"header":{"parameterUnit":"m.s-1","parameterCategory":2,"la1":30.2991,"la2":30.254,"lo1":-89.0895,"lo2":-89.0444,"dy":0.0017,"dx":0.0017,"nx":28,"ny":28,"refTime":"2024-07-28T09:00:00:Z","depth":"4","parameterNumber":3,"parameterNumberName":"V-component_of_CURRENTS"},"data":[0,0,0,0,0,0,0,0,0,0,0,0,0,0,0,0,0,0,0,0,0,0,0,0,0,0,0,0,0,0,0,0,0,0,0,0,0,0,0,0,0,0,0,0,0,0,0,0,0,0,0,0,0,0,0,0,0,0,0.0107,0.0107,0,0.0082,0.0081,0.0081,0.006,0.006,0.006,0.006,-0.0038,-0.0041,-0.0044,0,0,0,0,0,0,0,0,0,0,0,0,0,0.0103,0.0103,0.0107,0.0107,0.0107,0.0082,0.0081,0.008,0.006,0.006,0.006,0.006,-0.0037,-0.0041,-0.0044,0,0,0,0,0,0,0,0,0,0,0,0,0,0.0091,0.0103,0.0107,0.0096,0.0095,0.0082,0.0081,0.008,0.006,0.006,0.006,0.006,-0.0036,-0.004,-0.0044,-0.0071,0,0,-0.0057,-0.0058,0,0,0,0,0,0,0,0,0.0092,0.0091,0.0097,0.0096,0.0095,0.0077,0.0044,0.0027,0.006,0.007,0.006,0.006,-0.0005,-0.0011,-0.002,-0.0076,-0.008,-0.0057,-0.0059,-0.0061,-0.0062,0,0,0,0,0,0,0,0.0093,0.0092,0.0094,0.0097,0.0096,0.0081,0.0079,0.0041,0.0028,0.0069,0.0068,0.007,-0.0006,-0.0016,-0.0022,-0.0081,-0.0057,-0.006,-0.0063,-0.0064,-0.0194,-0.0195,0,0,0,0,0,0,0.0104,0.0093,0.0094,0.0093,0.0097,0.0081,0.0079,0.008,0.003,0.0024,0.007,0.0069,-0.0009,-0.0018,-0.0026,-0.0085,-0.0061,-0.0065,-0.0067,-0.0193,-0.0194,-0.0196,0,0,0,0,0,0,0.0104,0.0104,0.0095,0.0095,0.0093,0.0082,0.0082,0.0079,0.0064,0.0033,0.0025,0.0058,-0.0009,-0.002,-0.0058,-0.0088,-0.0067,-0.007,-0.0192,-0.0194,-0.0195,-0.0188,0,0,0,0,0,0,0.0104,0.0104,0.0102,0.0096,0.0094,0.0089,0.0083,0.0079,0.0067,0.0066,0.0019,0.0011,-0.001,-0.0052,-0.0062,-0.0093,-0.0073,-0.0191,-0.0193,-0.0195,-0.0187,-0.019,-0.0192,0,0,0,0,0,0.0104,0.0102,0.0102,0.0102,0.0093,0.0089,0.0086,0.0076,0.0066,0.0061,0.0032,0.0012,-0.0072,-0.0056,-0.0068,-0.0101,-0.019,-0.0192,-0.0194,-0.0186,-0.0189,-0.0191,0,0,0,0,0,0,0.0093,0.01,0.01,0.0098,0.0096,0.0087,0.0082,0.0071,0.0044,0.0039,0.0005,-0.0006,-0.0055,-0.0076,-0.0057,-0.0144,-0.0138,-0.0143,-0.0128,-0.0131,-0.0133,-0.013,-0.0077,0,0,0,0,0,0.0092,0.0096,0.0098,0.0095,0.0097,0.0087,0.0081,0.0075,0.0055,0.0044,0.0009,-0.0032,-0.0074,-0.0098,-0.0135,-0.0179,-0.019,-0.0211,-0.0213,-0.0214,-0.022,-0.0249,-0.0253,-0.0203,-0.0203,-0.0203,0,0,0.0088,0.0092,0.0093,0.0094,0.0091,0.009,0.0082,0.0076,0.0068,0.0035,0.0,-0.0041,-0.0087,-0.0134,-0.0159,-0.0155,-0.0234,-0.0217,-0.0218,-0.0224,-0.0251,-0.0256,-0.026,-0.0205,-0.0205,-0.0204,0,0,0.0086,0.0085,0.0092,0.0091,0.0093,0.0087,0.0085,0.007,0.0057,0.0026,-0.0007,-0.0057,-0.0119,-0.0156,-0.0183,-0.022,-0.0243,-0.0246,-0.0256,-0.0283,-0.0287,-0.0291,-0.0303,-0.0308,-0.0247,-0.0247,-0.0247,0,0.008,0.009,0.009,0.0096,0.0096,0.0086,0.0088,0.0074,0.0044,0.0023,0.0017,-0.0092,-0.0128,-0.0194,-0.0211,-0.0226,-0.0241,-0.024,-0.0284,-0.0288,-0.0292,-0.0304,-0.0309,-0.0247,-0.0247,-0.0247,-0.0247,0,0.0089,0.0093,0.0096,0.0103,0.0098,0.0099,0.0089,0.007,0.0047,0.0021,-0.0048,-0.0098,-0.0166,-0.0192,-0.0215,-0.0277,-0.0279,-0.028,-0.0272,-0.0297,-0.0308,-0.0313,-0.0247,-0.0247,-0.0247,-0.0247,0,0,0.0089,0.0102,0.0103,0.0109,0.0103,0.0103,0.0085,0.0063,0.0043,-0.0008,-0.0051,-0.0133,-0.0178,-0.0212,-0.0258,-0.0288,-0.0327,-0.0302,-0.0303,-0.0304,-0.0383,-0.0361,-0.0365,-0.0339,-0.034,-0.0341,-0.0376,0,0.0098,0.0117,0.0114,0.0119,0.0128,0.011,0.0095,0.0067,0.0033,-0.0014,-0.0082,-0.0144,-0.018,-0.0224,-0.0263,-0.0316,-0.0344,-0.0317,-0.0369,-0.037,-0.034,-0.0372,-0.0345,-0.038,-0.0381,-0.0382,-0.0383,0,0.0111,0.0123,0.0138,0.0135,0.0136,0.0129,0.0102,0.0086,0.0021,-0.001,-0.0088,-0.0148,-0.0231,-0.0243,-0.0337,-0.0322,-0.0358,-0.0385,-0.0387,-0.0375,-0.036,-0.0356,-0.0393,-0.0393,-0.0392,-0.0391,-0.0391,0,0.0125,0.0136,0.0151,0.0152,0.0147,0.0138,0.0125,0.0078,0.0062,-0.0019,-0.0049,-0.0154,-0.0206,-0.0274,-0.0351,-0.035,-0.0433,-0.0431,-0.0441,-0.0439,-0.0448,-0.0444,-0.0487,-0.0487,-0.0487,-0.0486,-0.0486,0,0.0138,0.0147,0.016,0.0169,0.0174,0.0155,0.014,0.0114,0.0063,0.0034,-0.0055,-0.0101,-0.0218,-0.0288,-0.035,-0.0415,-0.0433,-0.0451,-0.0453,-0.0444,-0.0439,-0.0451,-0.0447,-0.0488,-0.0487,-0.0487,-0.0487,0,0.0149,0.0159,0.018,0.0185,0.0184,0.0187,0.0166,0.0148,0.0105,0.0065,0.0035,-0.0068,-0.0159,-0.0259,-0.0364,-0.0402,-0.0469,-0.0483,-0.0462,-0.046,-0.0454,-0.0449,-0.0499,-0.0498,-0.0498,-0.0498,-0.0498,0,0.0155,0.017,0.0201,0.0212,0.0214,0.0212,0.0204,0.017,0.0153,0.0087,0.0066,-0.0035,-0.0111,-0.0232,-0.0339,-0.0451,-0.0462,-0.049,-0.0485,-0.0462,-0.0459,-0.0454,-0.0449,-0.0497,-0.0497,-0.0497,-0.0497,0,0.0165,0.0183,0.0206,0.023,0.0235,0.0241,0.0227,0.0223,0.0179,0.015,0.0091,-0.0,-0.0096,-0.0217,-0.0307,-0.0388,-0.0472,-0.0487,-0.0488,-0.0484,-0.0461,-0.0457,-0.0452,-0.0496,-0.0496,-0.0496,-0.0496,0,0.0173,0.0195,0.0223,0.0238,0.0253,0.025,0.0249,0.0226,0.0208,0.0149,0.0132,0.0016,-0.0057,-0.0184,-0.0268,-0.0349,-0.0365,-0.0378,-0.0385,-0.0387,-0.0348,-0.0302,-0.0297,0,0,0,0,0,0.0175,0.0191,0.0215,0.0236,0.0251,0.0252,0.025,0.0244,0.0219,0.0192,0.0165,0.0076,-0.0065,-0.0136,-0.021,-0.0271,-0.0387,-0.036,-0.0406,-0.0491,-0.0492,-0.0464,0,0,0,0,0,0,0.0173,0.0202,0.0214,0.022,0.0232,0.0237,0.0241,0.0229,0.0215,0.0188,0.0116,0.0074,-0.0065,-0.0018,-0.0206,-0.0235,-0.027,-0.043,-0.0431,-0.049,-0.0491,-0.0492,-0.0464,0,0,0,0,0]}]]